Change the Weather History Date:

Monday, June 16, 2014

  Actual Average Record
Temperature  
Mean Temperature 72 °F 71 °F  
Max Temperature 88 °F 81 °F 99 °F (1957)
Min Temperature 56 °F 61 °F 49 °F (1946)
Degree Days  
Heating Degree Days 0 1  
Month to date heating degree days 3 22  
Since 1 June heating degree days 3 22  
Since 1 July heating degree days 5477 5158  
Cooling Degree Days 7 6  
Month to date cooling degree days 70 78  
Year to date cooling degree days 114 135  
Since 1 June cooling degree days 70 78  
Growing Degree Days 20 (Base 50)    
Moisture  
Dew Point 57 °F    
Average Humidity 63    
Maximum Humidity 86    
Minimum Humidity 40    
Precipitation  
Precipitation T in 0.15 in 1.30 in (1982)
Month to date precipitation 0.96 2.56  
Year to date precipitation 21.29 20.08  
Sea Level Pressure  
Sea Level Pressure 30.08 in    
Wind  
Wind Speed 5 mph (SSW)    
Max Wind Speed 15 mph    
Max Gust Speed 20 mph    
Visibility 10 miles    
Events      
T = Trace of Precipitation, MM = Missing Value Source: NWS Daily Summary

Daily Weather History Graph

Daily Weather History Graph

Search for Another Location

Airport or City:

Trip Planner

Search our weather history database for the weather conditions in past years. The results will help you decide how hot, cold, wet, or windy it might be!

Date:

Astronomy

Jun. 16, 2014 Rise Set
Actual Time 5:28 AM EDT 8:31 PM EDT
Civil Twilight 4:55 AM EDT 9:04 PM EDT
Nautical Twilight 4:13 AM EDT 9:46 PM EDT
Astronomical Twilight 3:24 AM EDT 10:35 PM EDT
Moon 11:20 PM EDT (6/16) 9:30 AM EDT (6/16)
Length of Visible Light 16h 08m
Length of Day
15h 02m
Waning Gibbous, 83% of the Moon is Illuminated
Jun 16
Waning Gibbous
Jun 19
Last Quarter
Jun 27
New
Jul 5
First Quarter
Jul 12
Full

Hourly Weather History & Observations

Time (EDT) Temp. Heat Index Dew Point Humidity Pressure Visibility Wind Dir Wind Speed Gust Speed Precip Events Conditions
12:53 AM 64.0 °F - 55.9 °F 75% 30.09 in 10.0 mi Calm Calm - N/A   Clear
1:53 AM 62.1 °F - 55.9 °F 80% 30.09 in 10.0 mi NW 3.5 mph - N/A   Clear
2:53 AM 61.0 °F - 55.0 °F 81% 30.09 in 10.0 mi WNW 3.5 mph - N/A   Clear
3:53 AM 60.1 °F - 54.0 °F 80% 30.09 in 10.0 mi NW 4.6 mph - N/A   Clear
4:53 AM 57.9 °F - 54.0 °F 87% 30.11 in 10.0 mi Calm Calm - N/A   Clear
5:53 AM 57.0 °F - 54.0 °F 89% 30.12 in 10.0 mi Calm Calm - N/A   Clear
6:53 AM 60.1 °F - 55.0 °F 83% 30.13 in 10.0 mi NW 3.5 mph - N/A   Clear
7:53 AM 66.9 °F - 57.0 °F 70% 30.13 in 10.0 mi North 3.5 mph - N/A   Clear
8:53 AM 73.0 °F - 57.0 °F 57% 30.13 in 10.0 mi ENE 3.5 mph - N/A   Clear
9:53 AM 75.0 °F - 57.0 °F 53% 30.14 in 10.0 mi ENE 3.5 mph - N/A   Clear
10:53 AM 77.0 °F - 57.0 °F 50% 30.13 in 10.0 mi Calm Calm - N/A   Clear
11:53 AM 80.1 °F 80.6 °F 57.9 °F 47% 30.12 in 10.0 mi Variable 4.6 mph - N/A   Clear
12:53 PM 82.0 °F 81.7 °F 57.0 °F 42% 30.10 in 10.0 mi NNW 3.5 mph - N/A   Clear
1:53 PM 82.0 °F 81.6 °F 55.9 °F 41% 30.09 in 10.0 mi SSW 4.6 mph - N/A   Clear
2:53 PM 82.9 °F 82.1 °F 55.9 °F 39% 30.07 in 10.0 mi Calm Calm - N/A   Clear
3:53 PM 84.0 °F 83.3 °F 57.0 °F 40% 30.05 in 10.0 mi Variable 4.6 mph - N/A   Clear
4:53 PM 84.0 °F 83.3 °F 57.0 °F 40% 30.04 in 10.0 mi South 6.9 mph - N/A   Clear
5:53 PM 84.9 °F 84.2 °F 57.9 °F 40% 30.02 in 10.0 mi South 10.4 mph - N/A   Partly Cloudy
6:53 PM 81.0 °F 81.9 °F 62.1 °F 52% 30.02 in 10.0 mi South 12.7 mph - N/A   Clear
7:53 PM 80.1 °F 81.2 °F 62.1 °F 54% 30.02 in 10.0 mi South 8.1 mph - N/A   Clear
8:53 PM 77.0 °F - 62.1 °F 60% 30.04 in 10.0 mi South 9.2 mph - N/A   Clear
9:53 PM 75.0 °F - 61.0 °F 62% 30.05 in 10.0 mi South 9.2 mph - N/A   Clear
10:53 PM 73.0 °F - 61.0 °F 66% 30.05 in 10.0 mi South 8.1 mph - N/A   Clear
11:53 PM 72.0 °F - 61.0 °F 68% 30.05 in 10.0 mi SSW 5.8 mph - N/A   Clear